Wind_Speed
21 22 23 24 24 25 22 23 23 21 17 15 13 12 13 11 13 15 15 12 12 13 11 9 10 7 7 7 6 6 6 6 4 2 3 4 9 12 12 8 6 3 1
20 20 22 21 20 20 22 23 22 22 21 20 16 15 16 16 14 15 16 15 13 14 12 11 12 11 10 10 8 7 7 8 7 4 5 7 7 12 12 9 7 5 4
18 19 18 18 19 20 20 20 20 21 22 20 19 19 18 19 15 13 15 16 15 15 12 9 11 11 13 13 11 8 8 8 7 5 5 7 8 15 13 11 9 7 5
17 18 20 21 22 21 20 20 20 21 20 20 21 22 21 19 18 16 14 15 17 15 13 10 10 12 13 15 14 14 11 10 9 8 7 8 10 15 17 16 12 9 7
16 18 21 18 19 20 22 22 20 20 20 21 19 21 23 20 18 18 15 15 16 17 16 14 13 12 15 16 15 14 13 11 9 8 8 7 9 15 20 19 14 14 7
14 16 13 13 14 17 21 23 19 19 19 18 20 21 25 25 22 22 19 16 19 18 16 17 14 16 16 16 14 14 12 11 10 10 11 11 13 17 18 21 18 11 4
8 7 8 9 11 14 16 17 20 21 21 24 24 25 24 29 27 27 25 19 17 20 20 19 17 14 19 15 15 15 14 14 15 11 11 12 11 14 19 21 22 14 7
2 2 5 8 10 11 14 17 19 20 23 23 27 27 24 27 27 26 27 25 20 19 19 19 20 17 19 17 13 10 8 8 11 11 10 9 8 11 15 17 19 16 9
6 2 1 2 4 7 12 15 17 20 24 24 25 31 33 30 29 21 22 22 20 21 23 22 21 18 21 20 14 10 9 7 9 10 10 9 9 10 15 17 19 19 5
1 3 4 6 7 8 10 12 12 17 20 20 23 24 30 27 25 30 30 18 20 21 25 23 24 20 23 22 17 14 12 10 9 7 5 6 8 10 9 11 15 17 10
1 4 6 7 9 12 13 14 13 17 22 22 20 21 22 25 26 30 30 25 22 22 24 24 26 25 28 24 22 15 13 12 12 10 8 9 10 11 9 8 7 14 12
2 4 6 6 7 11 12 13 14 16 18 21 22 24 22 22 24 24 25 27 26 23 22 25 23 23 23 24 22 18 16 14 13 12 10 9 11 13 12 11 10 10 8
3 3 4 6 7 8 9 9 9 11 11 13 16 17 17 20 21 20 20 18 18 22 24 20 16 17 19 22 22 21 19 18 18 14 14 15 14 14 17 16 16 17 19
6 4 3 4 4 5 6 6 6 6 7 6 8 11 10 11 14 18 21 21 20 19 16 14 14 17 18 27 25 20 20 20 21 21 21 21 23 21 18 15 16 15 17
7 8 9 8 8 9 11 9 5 4 5 5 6 7 8 10 14 15 17 22 25 27 25 20 21 21 22 22 21 23 23 24 26 27 26 24 22 20 16 14 14 14 18
6 7 7 7 8 6 8 12 13 8 4 3 4 6 7 8 10 9 9 13 18 27 26 27 22 25 23 25 25 28 28 30 27 26 26 24 19 16 15 14 15 16 19
5 5 5 4 4 5 7 7 7 14 14 8 4 2 0 0 2 2 1 5 9 19 15 17 18 18 24 29 27 27 30 29 27 25 22 17 16 16 17 16 17 18 17
4 5 3 2 1 3 3 4 8 12 12 16 14 16 16 14 15 14 15 17 16 14 17 21 22 24 27 26 25 32 32 28 26 19 16 16 16 18 18 16 16 17 17
8 5 3 1 1 1 1 3 6 11 13 14 13 15 16 15 13 11 12 17 18 19 18 23 25 25 25 28 29 29 26 20 17 16 16 17 17 17 16 15 15 16 16
7 6 4 2 2 1 1 3 5 6 7 6 10 11 13 15 17 20 18 19 18 18 19 22 24 26 28 28 26 20 17 18 17 17 17 16 16 15 15 15 15 16 13
6 5 7 5 4 3 2 2 3 3 4 3 4 7 9 6 8 12 11 9 11 15 15 14 16 18 21 19 22 21 21 19 18 15 16 16 16 16 15 14 14 14 13
7 7 7 6 4 3 2 2 3 2 2 3 4 6 8 3 3 6 6 6 7 10 12 15 15 14 15 17 16 17 18 17 16 16 16 16 16 15 15 14 14 15 15
9 9 9 8 6 5 4 4 2 2 4 3 3 4 7 5 4 3 3 3 6 9 10 13 14 14 16 16 18 21 19 19 21 19 18 17 16 14 15 15 15 15 16
11 11 9 8 7 7 7 6 5 5 3 4 6 8 9 8 6 6 4 2 6 9 11 12 12 13 15 16 16 18 18 18 18 20 19 17 16 15 13 15 17 16 16
13 13 12 9 8 8 7 7 7 7 8 8 7 8 9 10 9 8 7 5 5 9 11 12 12 13 15 17 17 19 19 22 21 21 19 18 17 16 16 17 17 15 14
15 15 14 11 8 8 9 8 9 9 10 10 11 11 12 14 14 14 12 10 8 9 9 10 11 13 14 17 19 20 23 24 23 22 19 19 19 19 19 17 16 15 15
Wind_Direction
216 217 222 226 230 236 239 243 245 248 250 254 257 261 264 261 264 252 248 235 239 243 235 243 245 233 229 230 226 231 243 235 232 164 160 193 171 180 191 198 199 210 237
219 220 225 229 229 230 234 239 243 244 247 251 252 253 261 268 262 251 242 242 241 248 240 239 244 235 233 231 235 228 233 222 245 172 176 180 189 192 189 185 185 204 201
223 224 227 227 228 230 234 238 240 242 244 245 248 250 251 256 249 240 244 251 247 250 241 239 251 226 234 227 223 223 235 217 222 218 176 180 185 189 181 175 187 180 162
221 226 231 230 229 232 236 237 238 242 241 243 246 249 251 248 245 249 243 242 245 248 249 239 239 233 235 234 240 236 237 236 234 216 206 189 185 192 196 182 171 173 172
219 224 232 237 239 244 241 239 239 242 245 247 241 241 240 241 244 242 237 237 239 249 248 241 242 242 247 247 242 236 233 240 240 233 214 193 182 180 192 194 180 184 185
217 229 232 230 234 239 247 243 237 237 234 234 232 229 229 229 232 242 239 241 243 240 246 254 242 243 239 237 235 237 238 241 233 237 238 227 210 202 197 196 182 171 175
215 232 234 228 230 236 244 246 238 231 232 238 235 227 229 233 233 233 239 238 240 241 242 240 237 235 234 234 237 243 245 244 233 230 236 232 219 205 204 197 197 190 178
141 227 241 237 240 242 242 243 240 237 237 233 233 237 232 238 238 234 236 237 234 237 237 239 236 228 232 227 225 222 225 232 233 232 233 229 217 209 204 214 207 188 162
93 79 357 285 267 245 243 246 245 237 239 238 241 244 251 249 246 241 237 235 232 230 238 238 237 224 228 226 215 209 204 205 229 224 223 222 214 197 194 196 186 174 138
52 293 295 287 278 272 265 262 259 248 243 244 248 252 255 253 248 251 242 236 236 230 235 234 238 229 232 226 213 207 204 197 177 163 160 180 172 174 177 202 210 182 146
325 300 299 290 271 266 267 265 271 268 260 251 249 251 251 250 250 259 257 239 236 230 227 233 238 234 232 224 217 207 207 185 174 163 154 148 149 157 169 185 193 210 168
44 338 321 317 299 279 269 272 269 270 260 244 244 250 250 247 251 248 241 245 245 229 230 236 236 230 225 214 205 208 206 190 170 168 160 147 135 138 140 144 145 157 176
70 6 334 324 298 287 280 273 271 268 264 255 234 236 242 245 256 248 241 242 239 234 240 238 240 228 220 203 200 201 197 187 174 160 154 153 147 134 134 131 128 121 110
91 73 26 12 5 347 303 294 283 276 278 275 262 256 249 244 246 252 247 241 230 223 236 238 223 205 202 199 186 185 185 182 174 158 144 139 132 128 119 125 123 120 114
92 82 63 52 50 46 41 20 348 322 295 289 273 262 261 264 263 261 257 241 226 222 223 214 193 184 172 168 166 163 164 162 153 145 141 140 134 130 126 131 134 131 123
96 85 83 68 54 42 48 41 44 29 339 291 248 247 265 269 278 278 254 236 237 228 202 183 172 164 155 157 153 150 152 150 148 151 148 143 139 141 139 139 136 134 127
124 115 98 80 67 54 51 47 29 52 49 50 63 86 235 235 62 65 183 191 210 183 179 143 129 143 145 151 144 141 146 150 152 157 155 159 154 153 146 140 135 133 131
192 172 144 152 41 356 21 37 65 52 43 56 77 88 89 93 103 116 130 134 130 141 133 131 130 138 145 141 141 147 152 154 164 169 162 152 147 149 148 141 141 143 142
202 192 201 227 207 237 252 112 82 77 81 92 92 87 82 92 103 118 126 122 123 124 131 131 142 148 148 149 148 149 155 170 180 172 158 153 151 146 144 149 152 153 149
208 214 211 200 178 170 176 103 97 101 104 117 105 99 89 91 88 92 96 106 114 119 131 135 141 145 147 152 157 160 167 171 170 167 166 159 156 154 154 154 156 161 164
199 196 196 190 182 190 181 123 112 134 139 133 138 140 125 103 118 110 113 122 131 142 144 146 149 152 159 163 166 168 172 172 171 165 160 164 165 165 164 167 169 172 171
185 193 205 212 198 220 202 173 153 140 132 187 188 196 203 204 143 121 143 152 158 167 163 162 163 165 171 170 173 175 175 174 174 171 170 170 170 170 172 177 181 186 186
194 203 210 223 229 213 226 240 220 174 176 209 220 205 224 223 196 199 187 165 174 169 177 177 182 185 186 183 187 189 181 181 185 183 178 177 180 183 187 185 187 190 196
212 220 221 225 221 207 216 222 237 241 230 210 200 212 220 221 222 225 228 240 194 189 190 183 186 187 193 191 194 192 190 189 185 188 185 186 188 190 187 193 199 202 200
216 218 219 224 220 209 208 211 213 216 217 219 227 227 225 225 228 235 239 239 210 197 198 197 197 197 196 195 193 192 196 197 192 190 193 194 196 194 194 197 196 197 203
218 216 220 229 232 218 218 230 230 223 223 223 218 218 219 222 228 231 233 234 227 212 203 202 204 201 200 205 207 207 207 200 203 204 198 199 200 202 201 201 198 204 205
Height
794 797 800 802 805 808 812 813 815 818 820 821 822 822 823 823 824 825 824 827 827 828 829 829 830 830 831 831 830 832 832 832 832 834 835 835 838 839 841 845 846 846 847
789 793 795 799 801 803 805 807 810 812 814 816 817 818 818 818 819 821 823 823 824 824 826 826 826 827 827 827 828 828 830 830 830 830 833 835 837 839 841 843 846 847 847
785 787 791 793 796 797 800 802 803 805 807 809 812 813 813 813 815 816 818 820 821 820 821 822 822 823 824 825 825 825 827 828 828 829 831 833 835 837 840 842 844 845 846
780 782 784 786 788 791 794 795 796 798 800 802 804 806 808 809 809 811 813 815 817 818 817 818 819 820 821 822 823 823 825 826 826 826 828 831 832 834 837 840 842 844 845
774 776 777 781 783 785 787 788 790 791 793 795 797 799 801 803 805 806 807 809 811 813 814 814 815 816 818 819 820 820 821 822 823 824 826 828 829 831 832 835 839 842 844
769 771 774 776 778 780 781 782 785 786 786 788 788 790 791 792 796 800 803 803 806 808 810 811 812 812 813 815 817 817 818 819 820 820 821 822 825 826 829 832 835 840 843
766 768 771 773 775 776 777 778 779 780 781 780 781 782 784 785 787 790 796 798 800 803 805 807 808 809 810 811 812 814 814 815 816 818 819 820 821 822 825 827 831 835 838
763 766 769 770 770 771 772 773 773 775 774 775 776 776 778 778 779 782 787 791 793 796 799 801 802 803 806 808 809 810 811 811 812 814 816 817 818 820 822 824 828 832 835
762 765 766 768 768 768 768 767 768 769 769 769 770 770 771 772 775 779 783 784 786 788 792 795 796 798 800 803 806 808 809 808 809 811 812 813 814 817 819 821 825 829 834
760 762 762 764 765 765 764 764 764 763 763 764 764 764 763 765 767 773 777 778 780 781 785 787 789 793 794 798 801 804 807 807 808 809 810 811 813 815 818 821 823 826 828
759 759 760 761 761 761 760 759 759 759 758 759 759 759 760 761 763 765 767 771 774 775 776 778 780 784 787 791 796 800 803 803 805 809 810 811 813 815 817 819 820 822 824
757 757 757 757 758 757 757 756 755 754 753 752 753 753 754 755 756 758 762 766 767 770 771 772 774 777 782 786 791 795 797 800 804 807 810 812 813 814 816 818 820 822 823
758 758 758 756 756 755 754 752 751 750 749 748 748 749 749 750 751 754 757 760 763 766 765 766 770 773 778 782 786 790 793 797 800 804 807 810 810 814 814 818 821 824 826
760 760 760 758 756 754 753 751 749 748 747 746 745 745 746 747 748 750 753 755 758 761 763 768 768 770 773 778 780 785 789 794 798 801 806 810 810 814 818 820 824 828 830
761 760 759 759 756 755 753 751 748 746 745 744 743 743 743 743 744 746 747 749 751 753 755 761 763 765 770 775 771 780 786 792 797 802 807 811 812 814 820 823 826 828 829
762 760 760 759 758 757 756 755 750 747 744 743 742 741 741 740 741 741 742 745 747 750 752 753 758 761 766 772 777 778 785 790 798 804 807 811 814 816 820 825 828 830 831
760 761 761 761 760 759 758 757 753 750 746 743 742 741 740 739 739 738 740 742 745 749 751 753 751 759 762 769 773 778 786 793 798 807 808 811 815 819 822 826 828 831 835
759 759 760 760 760 760 759 759 755 753 751 748 747 746 744 743 742 744 746 747 749 753 753 753 754 761 765 771 777 781 789 795 802 807 810 811 815 818 821 825 829 833 837
757 758 760 761 761 761 761 760 758 756 756 755 753 752 751 750 749 750 749 750 753 755 758 759 763 767 772 775 781 787 792 800 805 807 810 812 816 818 821 825 829 832 836
756 758 759 761 761 761 762 760 760 760 760 760 758 758 758 758 757 756 757 757 761 761 764 764 768 772 775 780 785 792 797 801 805 807 809 812 815 818 822 825 829 833 836
756 757 758 760 761 761 761 760 761 762 762 763 762 762 762 764 764 762 763 765 768 768 769 772 775 777 781 783 786 791 796 800 803 805 808 812 814 818 821 825 828 832 835
755 757 759 760 760 761 760 761 761 762 763 764 765 765 765 764 766 765 768 769 770 772 774 773 776 779 782 784 788 792 795 797 801 805 808 811 814 817 820 824 827 830 833
753 756 757 758 758 759 760 760 760 761 762 764 765 765 766 767 766 768 770 770 771 772 773 775 777 779 781 783 787 790 793 795 799 804 806 809 812 815 818 821 825 827 830
752 753 755 756 756 756 758 759 759 759 759 761 763 765 766 767 767 769 770 770 771 772 773 773 775 778 780 782 786 788 791 795 797 802 804 806 810 812 814 818 821 823 825
748 750 752 753 753 754 755 756 757 758 759 760 761 762 763 764 766 767 768 769 770 771 772 773 775 777 778 780 783 786 789 791 795 798 800 804 806 808 811 815 816 818 820
745 747 749 750 751 752 753 754 755 755 756 757 758 759 761 763 764 765 766 767 768 769 769 770 771 773 775 778 781 783 786 788 791 794 797 801 803 805 808 809 811 813 816